Temperature
17 16 15 15 15 15 14 14 14 14 14 13 13 13 13 13 13 13 13 13 13 13 12 12 13 12 12 13 13 13 13 14 14 13 13 12 12 12 13 13 13 13 14
18 16 15 15 15 14 14 14 14 14 13 13 13 13 13 13 13 13 13 12 12 12 12 12 12 12 12 12 13 13 13 13 13 13 13 12 12 12 12 12 12 12 13
18 16 15 15 14 14 14 14 14 13 13 13 13 13 13 13 12 12 12 12 12 12 12 12 12 12 12 12 12 13 13 13 13 13 12 11 11 11 11 11 12 12 12
17 16 15 15 14 14 14 14 14 13 13 13 13 13 12 12 12 12 12 12 12 12 12 11 12 11 12 12 12 13 13 13 13 12 11 10 10 10 10 10 11 11 11
16 15 15 15 14 14 14 13 13 13 13 13 12 12 12 12 11 11 12 12 12 12 12 11 11 11 11 12 12 12 12 12 12 11 10 10 9 10 10 10 10 10 10
16 15 15 15 14 14 14 13 13 13 13 12 12 12 11 11 11 11 11 12 12 12 11 11 11 11 11 11 12 12 12 12 11 10 10 9 9 9 9 9 9 10 10
16 15 14 14 14 14 13 13 13 13 12 12 12 11 11 11 11 11 11 11 11 11 11 11 11 11 11 11 11 11 11 11 10 10 9 9 9 9 9 9 9 9 9
16 15 14 14 14 13 13 13 13 12 12 12 12 11 11 11 11 11 11 11 11 11 11 11 10 11 11 11 11 11 11 11 10 9 9 9 9 9 9 9 9 9 9
15 15 14 14 13 13 13 13 12 12 12 12 11 11 11 11 11 11 11 11 11 10 10 10 10 10 10 10 11 11 10 10 9 9 9 9 9 9 9 9 9 9 9
15 14 14 13 13 13 13 12 12 12 12 12 11 11 11 11 11 11 10 10 10 10 10 10 10 10 10 10 10 10 10 10 9 9 9 9 9 9 8 8 8 8 8
15 14 14 13 13 13 12 12 12 12 12 12 11 11 11 10 10 10 10 10 10 10 10 10 10 10 10 10 10 10 10 9 9 9 9 9 9 8 8 8 8 8 8
15 15 14 14 13 13 12 12 12 12 12 11 11 11 10 10 10 10 10 10 10 10 10 10 10 10 9 9 9 9 9 9 8 8 8 9 9 8 8 8 8 8 8
16 15 15 14 14 13 13 12 12 12 11 11 11 11 10 10 10 10 10 10 10 10 9 10 9 9 9 9 9 9 9 8 8 8 8 9 8 8 8 8 8 7 7
16 16 15 15 14 13 13 12 12 12 12 11 11 11 11 10 10 10 10 10 9 9 9 9 9 9 9 9 9 9 9 9 8 8 8 9 8 8 8 7 7 7 7
17 16 16 15 14 14 13 13 12 12 12 12 11 11 11 11 10 10 10 10 9 9 9 9 9 9 9 9 9 9 9 9 9 8 8 9 8 8 8 7 7 7 7
17 17 16 15 15 14 13 13 13 12 12 12 11 11 11 10 10 10 10 10 9 9 9 9 9 9 9 9 9 9 9 9 9 8 8 8 8 8 8 8 7 7 7
18 17 17 16 15 15 14 13 13 12 12 12 12 11 11 11 10 10 10 10 10 9 9 9 9 9 9 9 9 9 9 9 9 8 8 8 8 8 8 8 8 8 7
17 17 17 16 15 15 14 14 13 13 12 12 12 11 11 11 11 10 10 10 9 9 9 9 9 9 9 9 9 9 9 9 9 9 8 8 8 8 8 8 8 8 8
17 17 17 17 16 15 14 14 13 13 12 12 12 11 11 11 11 10 10 10 9 9 9 9 9 9 9 9 9 9 9 9 9 9 8 8 8 8 8 8 8 8 8
17 17 17 16 16 15 14 13 13 12 12 12 12 12 11 11 11 10 10 10 9 9 9 9 9 9 9 9 9 9 9 9 9 9 9 8 8 8 8 8 8 8 8
17 16 16 16 16 15 14 14 13 13 13 12 12 12 11 11 11 10 10 10 10 9 9 9 9 9 9 9 9 9 9 9 9 9 9 8 8 8 8 8 8 7 7
18 17 17 16 16 16 15 15 15 14 13 13 12 12 11 11 11 11 10 10 10 10 9 9 9 9 9 9 9 8 8 9 9 9 9 9 8 8 8 8 8 8 7
18 18 18 17 17 16 16 15 14 13 12 12 12 12 12 11 11 11 11 10 10 10 10 9 9 9 9 9 9 8 8 9 8 9 9 9 8 8 8 8 8 7 7
19 19 18 18 17 17 16 14 14 13 13 13 13 13 12 11 11 11 11 10 10 10 10 10 10 9 9 9 9 9 8 8 8 8 8 8 8 8 8 7 7 7 7
19 19 19 18 17 16 16 15 14 14 14 13 12 12 12 11 11 11 11 10 10 10 10 10 10 9 9 9 9 9 9 8 8 8 8 8 8 8 8 7 7 7 7
19 19 18 18 17 16 16 15 15 14 14 13 12 12 12 12 11 11 11 10 10 10 10 10 10 10 9 9 9 9 9 8 8 8 7 7 7 7 7 7 7 7 6
Wind_Speed
14 19 21 20 18 17 16 16 15 15 14 14 14 14 14 14 15 15 15 15 14 14 15 16 16 17 17 17 18 18 18 18 18 17 17 17 17 17 17 16 15 15 18
19 22 23 21 19 18 17 16 15 15 14 14 14 14 13 13 14 14 14 14 14 14 14 15 16 16 16 16 16 16 17 16 16 16 15 15 16 16 16 16 16 14 16
21 22 23 21 20 19 18 17 16 15 15 14 14 13 13 13 13 14 13 14 14 14 14 14 15 15 15 15 15 15 15 15 14 13 11 12 14 15 15 15 15 14 14
21 22 22 22 21 20 19 18 17 16 15 14 14 13 13 13 13 13 13 13 14 14 14 14 14 14 14 14 14 14 14 13 12 9 10 11 12 13 13 13 13 13 13
20 20 22 23 21 20 20 18 17 17 15 14 13 13 13 13 13 13 13 13 13 13 13 13 13 13 14 13 13 13 12 11 9 10 10 10 10 11 12 12 12 11 11
20 20 22 22 21 21 20 19 18 16 15 14 13 12 12 12 12 12 12 12 12 12 12 12 12 12 12 12 12 12 11 9 7 9 9 9 9 10 10 10 10 10 10
19 19 22 22 21 21 20 19 18 16 15 14 13 13 13 12 12 12 12 12 11 11 11 11 11 11 11 11 11 10 9 7 7 7 7 8 9 9 9 9 9 9 9
18 18 21 22 21 21 20 19 18 16 15 14 14 13 13 13 12 12 11 11 11 11 10 10 10 9 9 9 9 8 8 5 5 6 6 7 9 8 9 9 9 9 9
17 17 18 21 20 20 19 19 18 17 15 15 14 13 13 12 12 11 11 10 10 9 9 9 9 8 8 8 8 7 6 4 4 5 5 6 8 7 8 9 9 9 9
16 16 17 19 19 19 19 18 18 17 16 15 14 14 13 12 11 11 10 10 9 9 8 8 8 7 7 7 7 6 3 1 4 4 4 6 7 7 7 8 9 9 9
16 16 16 17 18 18 17 18 17 16 16 15 14 14 13 11 11 10 9 9 8 8 7 7 7 6 5 6 5 3 0 2 3 3 4 7 7 7 7 8 8 9 9
20 19 16 17 17 17 15 16 15 15 15 14 13 14 11 9 8 8 10 8 7 7 6 6 5 4 2 3 3 1 1 2 2 3 4 7 7 7 7 8 8 8 8
21 20 18 17 17 16 14 14 12 12 13 13 13 13 11 9 8 8 8 8 7 6 5 5 4 2 1 1 1 1 2 2 2 2 3 6 6 6 7 7 7 8 8
20 21 19 18 16 16 15 13 13 12 11 11 13 14 11 9 8 8 7 7 7 5 4 3 2 2 1 0 1 1 1 2 2 2 3 5 5 6 6 7 7 7 8
21 21 20 19 18 16 14 12 12 12 12 13 13 13 13 10 8 8 7 7 6 5 5 3 3 2 2 1 1 2 2 2 2 2 2 4 4 5 6 6 7 7 8
21 22 21 21 20 18 15 13 12 13 13 13 13 14 14 11 9 9 8 7 7 6 5 4 3 2 2 1 1 1 2 2 2 2 1 2 4 4 5 6 6 7 8
21 21 22 21 20 20 18 16 13 13 14 13 13 15 15 13 11 10 8 7 7 7 6 4 4 3 2 2 2 2 2 2 2 1 1 1 1 3 4 5 5 6 7
20 21 21 18 21 21 18 16 13 14 14 13 14 14 16 15 13 11 8 8 8 7 6 5 4 3 3 2 2 1 2 2 2 2 1 1 1 0 2 4 4 5 7
20 21 21 21 22 21 19 15 14 13 14 13 14 14 16 16 15 13 9 9 9 8 6 5 5 4 3 2 2 2 2 2 2 2 2 2 1 1 1 1 2 4 5
20 20 21 21 21 20 16 14 12 12 12 13 14 15 17 16 17 14 11 11 10 7 7 6 6 4 3 2 2 3 3 3 3 3 3 3 3 2 2 2 3 2 3
19 21 22 22 21 19 16 15 15 14 13 13 13 16 18 17 17 16 11 11 10 9 9 9 7 6 5 3 3 3 4 4 4 3 3 4 3 3 3 3 4 4 3
21 22 22 23 22 21 18 17 15 15 13 13 12 15 18 18 18 16 14 11 11 9 10 10 8 6 4 4 4 3 3 4 4 4 4 4 4 4 4 4 4 4 5
21 23 21 23 23 23 21 15 13 11 10 11 13 13 16 19 19 17 17 14 12 11 10 11 10 10 6 6 5 4 4 3 2 4 5 5 5 5 5 5 5 5 5
21 21 22 22 23 23 21 18 20 16 15 17 14 14 15 19 19 19 17 16 13 12 11 11 11 9 8 6 5 5 5 4 4 3 4 5 5 6 6 5 6 6 6
19 19 20 21 22 22 22 22 21 19 17 14 14 15 15 15 17 18 18 16 14 12 13 12 11 11 9 8 6 5 5 5 6 5 6 5 5 5 6 6 6 6 6
16 17 18 20 22 22 23 23 23 22 19 17 17 16 14 13 14 18 17 16 15 13 13 13 12 13 11 10 8 7 6 5 5 6 7 7 6 5 5 5 6 6 7
Wind_Direction
163 161 161 157 154 151 146 139 133 128 123 120 115 111 107 102 98 95 92 89 88 88 87 85 82 80 79 77 75 73 71 69 66 63 61 62 62 60 56 50 48 52 48
156 159 159 158 156 153 147 142 135 131 126 123 119 114 111 108 104 99 96 93 91 89 88 88 85 82 80 79 76 74 72 70 67 64 63 65 62 60 57 53 50 50 48
153 157 160 159 157 153 148 144 139 135 130 125 121 117 114 112 108 103 99 96 93 91 91 90 87 85 83 80 78 76 74 71 67 65 66 65 64 59 57 54 52 49 47
154 157 160 157 157 154 150 146 143 138 132 128 125 122 120 115 109 104 100 97 95 93 92 91 88 86 85 83 80 78 75 71 65 62 62 60 60 58 55 52 50 47 45
154 158 156 158 158 155 152 148 145 140 136 132 128 125 121 116 111 108 105 101 99 97 96 94 92 89 86 83 81 78 74 70 67 66 64 59 58 56 53 48 45 43 41
157 158 156 161 157 154 153 151 148 144 142 139 135 132 127 122 117 112 110 108 106 104 101 99 95 92 88 85 82 78 73 66 70 65 60 52 50 48 49 44 38 35 34
159 159 159 162 159 156 155 154 152 149 148 144 142 138 132 128 124 120 117 115 111 108 106 102 99 94 91 87 82 77 69 56 60 63 56 48 40 33 39 37 31 25 23
159 161 161 164 162 161 160 158 156 154 152 149 147 143 137 134 131 128 125 121 116 111 108 104 100 97 92 86 81 74 64 42 65 60 51 45 31 23 25 25 21 17 16
162 164 164 167 167 166 164 163 160 158 156 153 152 148 143 140 138 135 130 125 120 115 110 107 103 98 93 87 81 76 66 29 49 56 46 37 19 15 17 14 12 10 12
168 170 171 172 171 170 168 166 163 161 159 157 155 149 145 145 144 140 140 132 127 120 115 109 103 98 92 86 83 79 68 324 51 49 36 27 7 7 10 10 9 12 15
177 178 178 176 175 172 171 166 166 164 162 160 156 148 153 159 154 152 140 136 135 129 122 112 104 101 104 101 88 83 269 30 42 30 29 14 0 4 6 8 12 17 19
183 183 183 181 177 174 171 171 174 172 170 174 169 166 171 166 157 149 133 141 139 134 129 114 113 126 161 121 117 198 28 23 15 31 31 7 358 3 6 10 13 15 21
183 183 185 184 181 178 176 176 175 175 176 180 177 174 173 167 160 163 159 159 159 162 157 144 167 150 130 77 18 15 10 354 4 19 36 11 356 0 8 11 14 17 23
186 188 187 186 185 185 182 180 179 178 179 180 181 179 177 176 176 173 175 173 174 176 172 179 182 161 167 155 318 344 346 338 349 359 32 15 0 3 8 12 14 16 18
190 190 190 189 189 188 187 185 185 185 184 184 183 187 186 184 183 179 182 180 184 182 185 193 199 189 207 226 284 306 314 321 326 333 29 42 19 12 11 14 15 16 14
195 192 191 192 192 190 191 190 190 190 188 188 187 191 192 191 188 186 187 187 189 192 195 203 205 210 222 237 272 292 304 307 310 313 347 74 61 30 17 17 14 11 8
197 194 193 194 193 194 195 195 193 192 191 191 191 193 195 196 193 191 193 192 194 195 198 206 204 218 227 236 253 273 292 301 293 291 287 302 85 69 41 22 13 9 1
198 196 194 193 196 197 197 196 195 194 194 195 194 195 198 199 196 196 197 199 196 194 200 203 209 214 222 239 255 262 262 258 262 264 239 225 248 291 68 41 18 6 354
201 197 195 195 197 198 198 196 197 196 197 198 197 198 200 201 199 200 202 201 197 199 203 203 213 220 227 237 254 261 260 250 240 233 225 216 218 249 284 48 20 5 349
203 200 198 197 199 197 197 197 196 200 201 200 200 202 201 201 201 203 204 204 200 203 205 207 208 213 231 233 241 255 252 243 232 230 227 216 213 225 257 289 293 320 338
202 201 200 198 198 195 194 195 196 201 201 202 203 204 203 203 202 204 205 204 203 207 209 210 208 209 216 218 236 252 236 228 230 225 227 225 216 226 246 271 289 299 300
202 201 201 200 198 196 197 197 200 201 203 204 202 205 204 204 204 205 207 206 203 208 211 210 208 212 209 209 231 253 255 222 214 221 225 230 234 233 245 263 276 280 291
203 202 200 200 198 198 197 195 194 196 198 200 203 205 206 205 205 205 209 208 206 207 210 210 208 210 213 207 222 238 256 263 269 210 220 228 234 243 251 259 263 267 274
204 201 201 199 199 198 195 195 193 196 200 204 202 204 203 205 206 206 208 209 208 209 211 211 209 211 213 212 208 229 250 275 265 264 224 226 237 249 254 256 257 257 261
202 198 199 198 198 197 196 198 198 203 206 204 201 202 202 202 206 207 207 208 210 210 212 210 207 208 212 215 207 204 221 235 246 256 267 257 247 244 250 257 256 254 253
198 195 196 197 198 197 197 200 202 204 204 200 199 199 199 200 204 207 208 208 210 210 210 209 207 208 211 214 211 208 208 216 222 233 255 268 271 264 258 252 249 247 248
Height
1520 1524 1527 1530 1532 1535 1536 1538 1539 1541 1542 1542 1543 1544 1544 1544 1544 1545 1545 1545 1545 1545 1545 1545 1545 1544 1544 1544 1543 1543 1542 1542 1541 1541 1541 1540 1540 1539 1539 1538 1538 1538 1537
1519 1523 1526 1529 1532 1534 1536 1538 1540 1541 1542 1543 1544 1544 1545 1545 1545 1545 1545 1546 1546 1546 1546 1546 1546 1545 1545 1544 1544 1544 1543 1543 1543 1542 1542 1542 1541 1540 1539 1539 1538 1538 1537
1519 1523 1526 1529 1532 1534 1536 1538 1540 1541 1542 1543 1544 1545 1545 1546 1546 1546 1546 1546 1547 1547 1547 1547 1547 1546 1546 1545 1545 1545 1544 1544 1544 1544 1544 1544 1543 1541 1540 1539 1539 1538 1537
1520 1523 1526 1529 1532 1535 1537 1539 1540 1542 1543 1544 1545 1545 1546 1546 1547 1547 1547 1547 1547 1547 1548 1548 1547 1547 1547 1547 1546 1546 1545 1545 1545 1545 1546 1545 1544 1543 1542 1541 1540 1539 1538
1520 1524 1527 1529 1532 1535 1537 1539 1541 1542 1543 1544 1545 1546 1546 1547 1547 1547 1548 1548 1548 1548 1548 1548 1548 1548 1548 1548 1547 1547 1547 1547 1546 1547 1546 1546 1546 1545 1543 1542 1541 1540 1539
1521 1524 1527 1530 1533 1535 1537 1539 1541 1542 1544 1545 1546 1546 1547 1547 1548 1548 1548 1549 1549 1549 1549 1550 1550 1549 1549 1549 1549 1548 1548 1548 1548 1548 1548 1548 1547 1546 1545 1544 1542 1541 1540
1521 1524 1527 1530 1533 1536 1538 1540 1541 1543 1544 1545 1546 1547 1547 1548 1548 1549 1549 1549 1550 1550 1550 1551 1551 1550 1550 1550 1550 1550 1549 1549 1549 1549 1549 1548 1548 1547 1546 1545 1544 1543 1541
1522 1525 1528 1530 1533 1536 1538 1540 1542 1543 1544 1545 1546 1547 1548 1548 1549 1549 1550 1550 1551 1551 1551 1552 1552 1552 1551 1551 1551 1551 1550 1550 1550 1550 1550 1549 1548 1547 1547 1546 1544 1543 1542
1522 1525 1528 1530 1533 1536 1538 1540 1542 1543 1544 1546 1547 1548 1548 1549 1550 1550 1551 1551 1552 1552 1552 1552 1552 1552 1552 1552 1552 1552 1551 1551 1552 1551 1550 1550 1549 1548 1547 1546 1545 1544 1542
1522 1525 1527 1530 1533 1535 1537 1539 1541 1543 1544 1546 1547 1548 1549 1550 1550 1551 1551 1552 1552 1553 1553 1553 1553 1553 1553 1553 1553 1552 1552 1552 1552 1551 1551 1550 1549 1548 1547 1546 1545 1544 1542
1520 1523 1526 1529 1532 1535 1537 1539 1541 1543 1544 1546 1547 1548 1549 1550 1551 1552 1552 1552 1553 1553 1553 1554 1554 1554 1554 1553 1553 1553 1553 1553 1553 1552 1551 1550 1549 1548 1547 1546 1545 1544 1542
1517 1521 1524 1527 1530 1533 1536 1538 1540 1542 1543 1545 1547 1548 1549 1551 1552 1552 1552 1553 1553 1554 1554 1554 1554 1554 1555 1555 1554 1554 1554 1553 1553 1552 1551 1549 1549 1548 1547 1546 1545 1543 1542
1514 1518 1521 1525 1528 1531 1533 1536 1538 1540 1542 1544 1546 1547 1549 1550 1551 1551 1552 1553 1553 1554 1555 1554 1555 1555 1555 1555 1555 1554 1554 1553 1553 1552 1550 1549 1548 1548 1547 1546 1545 1543 1542
1512 1515 1519 1522 1525 1529 1531 1534 1536 1538 1540 1542 1544 1546 1547 1548 1550 1551 1552 1552 1553 1554 1554 1555 1555 1555 1555 1555 1554 1554 1553 1553 1552 1551 1550 1549 1548 1547 1546 1545 1544 1543 1542
1509 1512 1515 1519 1522 1525 1529 1531 1534 1536 1538 1540 1542 1544 1545 1547 1548 1549 1551 1551 1553 1553 1554 1554 1555 1555 1555 1554 1554 1553 1553 1552 1552 1551 1550 1548 1547 1546 1546 1545 1544 1543 1541
1505 1509 1512 1515 1519 1522 1525 1528 1531 1534 1536 1538 1540 1542 1544 1545 1547 1548 1549 1550 1551 1552 1553 1554 1554 1554 1554 1554 1553 1553 1552 1552 1551 1550 1549 1548 1546 1546 1545 1544 1543 1541 1540
1502 1505 1508 1512 1515 1518 1522 1525 1528 1531 1533 1535 1538 1540 1541 1543 1545 1546 1548 1549 1550 1551 1552 1552 1553 1553 1553 1553 1553 1552 1551 1551 1550 1549 1548 1547 1546 1545 1544 1543 1542 1540 1539
1498 1501 1504 1507 1511 1514 1518 1521 1524 1527 1530 1532 1535 1537 1539 1541 1542 1544 1546 1547 1548 1549 1550 1551 1552 1552 1552 1552 1552 1551 1550 1549 1549 1548 1547 1546 1545 1544 1543 1542 1540 1539 1538
1493 1496 1499 1502 1506 1510 1514 1517 1520 1523 1526 1529 1531 1533 1535 1538 1540 1542 1543 1545 1546 1547 1548 1549 1550 1551 1551 1551 1550 1550 1549 1548 1547 1546 1546 1545 1544 1543 1542 1540 1539 1538 1536
1487 1491 1494 1498 1501 1505 1509 1513 1516 1519 1521 1524 1526 1529 1532 1534 1536 1539 1541 1542 1544 1545 1546 1547 1548 1549 1549 1549 1549 1548 1547 1546 1545 1545 1544 1543 1542 1541 1540 1539 1538 1536 1534
1481 1484 1488 1492 1495 1499 1503 1506 1509 1512 1515 1518 1521 1524 1527 1530 1532 1535 1537 1539 1541 1542 1544 1545 1546 1547 1547 1547 1547 1547 1545 1544 1543 1543 1542 1541 1540 1539 1538 1537 1536 1534 1532
1474 1477 1481 1485 1489 1492 1496 1500 1503 1507 1510 1513 1516 1519 1522 1525 1528 1531 1533 1535 1537 1539 1541 1542 1543 1544 1544 1545 1545 1545 1545 1545 1541 1541 1540 1539 1539 1538 1536 1535 1534 1532 1530
1466 1470 1473 1477 1481 1486 1490 1495 1499 1502 1505 1508 1510 1513 1516 1520 1523 1526 1529 1531 1533 1535 1537 1538 1540 1541 1542 1542 1543 1544 1544 1542 1541 1539 1538 1537 1536 1535 1534 1533 1531 1529 1527
1459 1463 1467 1471 1475 1479 1483 1487 1490 1493 1496 1499 1503 1507 1511 1514 1518 1521 1524 1527 1529 1531 1533 1534 1536 1537 1538 1539 1539 1540 1540 1540 1540 1538 1536 1535 1533 1533 1531 1530 1528 1526 1524
1452 1455 1460 1464 1468 1472 1476 1480 1484 1487 1491 1496 1499 1502 1505 1509 1512 1516 1519 1522 1524 1526 1528 1530 1532 1533 1534 1535 1535 1536 1536 1536 1536 1535 1534 1532 1531 1529 1528 1526 1524 1523 1521
1444 1448 1452 1456 1461 1465 1469 1473 1477 1481 1485 1489 1492 1496 1499 1503 1506 1510 1513 1516 1519 1521 1523 1525 1527 1529 1530 1531 1531 1532 1532 1532 1532 1531 1530 1529 1528 1526 1524 1522 1520 1519 1517